Hourly Weather Roundup
Issued by NWS Central Illinois

Home | Current Version | Previous Version | Text Only | Print | Product List | Glossary On
Versions: 1 2 3 4 5 6 7 8 9 10 11 12 13 14 15 16 17 18 19 20 21 22 23 24 25 26 27 28 29 30 31 32 33 34 35 36 37 38 39 40 41 42 43 44 45 46 47 48 49 50
000
NZUS43 KILX 181010
HWRILX

AREA WEATHER ROUNDUP
NATIONAL WEATHER SERVICE, LINCOLN IL
400 AM CST THU DEC 18 2014


CITY           SKY/WX    TMP DP  RH WIND       PRES   REMARKS
BLOOMINGTON    MOCLDY    21  19  92 N5        30.26F WCI  15
CHAMPAIGN      CLOUDY    25  19  78 NE6       30.25F WCI  18
DECATUR        MOCLDY    24  20  84 CALM      30.28S
FLORA          CLOUDY    26  22  86 NE3       30.31R
GALESBURG      MOCLDY    16  15  93 N6        30.27F WCI   8
JACKSONVILLE   CLOUDY    28  24  86 CALM      30.28F
LACON          PTCLDY    17  14  90 CALM      30.29F
LAWRENCEVILLE  CLOUDY    26  21  81 NE7       30.29F WCI  18
LITCHFIELD     CLOUDY    25  19  79 E5        30.28S WCI  19
$$


CITY           SKY/WX    TMP DP  RH WIND       PRES   REMARKS
LINCOLN        PTCLDY    22  20  91 CALM      30.30S
MACOMB         PTCLDY    19  17  92 CALM      30.30F
MATTOON        CLOUDY    24  18  77 E5        30.26F WCI  18
MT CARMEL AP   CLOUDY    30  23  74 NE6       30.28F WCI  24
OLNEY-NOBLE AP CLOUDY    27  21  80 CALM      30.30R
PARIS          CLOUDY    26  22  84 CALM      30.26F
PEORIA         MOCLDY    20  15  81 N3        30.28F
PONTIAC        PTCLDY    19  17  94 CALM      30.30S
RANTOUL        CLOUDY    25  20  82 CALM      30.26S
ROBINSON       CLOUDY    26  22  85 NE7       30.29F WCI  18
SPRINGFIELD    PTCLDY    21  18  88 N5        30.28F WCI  15
TAYLORVILLE    MOCLDY    25  21  86 CALM      30.28F
$$

...REGIONAL REPORTS...


CITY           SKY/WX    TMP DP  RH WIND       PRES   REMARKS
CHICAGO O`HARE PTCLDY    20  14  77 CALM      30.27S
KANKAKEE       CLOUDY    24  19  80 CALM      30.29F
MOLINE         MOCLDY    18  14  84 CALM      30.29F
MOUNT VERNON   CLOUDY    28  21  74 CALM      30.31R
PITTSFIELD     CLOUDY    28  23  83 CALM      30.29F
QUINCY         CLOUDY    26  20  77 NE6       30.27F WCI  19
ROCKFORD       PTCLDY    20  13  74 N6        30.30S WCI  12
$$


CITY           SKY/WX    TMP DP  RH WIND       PRES   REMARKS
BURLINGTON     MIX PCPN  23  17  78 CALM      30.28F
CEDAR RAPIDS   FAIR      14  11  87 CALM      30.28F
DES MOINES     CLOUDY    23  16  74 E3        30.28S
KIRKSVILLE     CLOUDY    26  21  81 NE7       30.26F WCI  18
OTTUMWA        CLOUDY    22  16  78 E5        30.28F WCI  16
ST LOUIS       FLURRIES  30  23  75 E3        30.28F
$$


CITY           SKY/WX    TMP DP  RH WIND       PRES   REMARKS
TERRE HAUTE    CLOUDY    25  19  78 E6        30.28F WCI  18
EVANSVILLE     MOCLDY    30  24  78 NE5       30.29S WCI  25
INDIANAPOLIS   CLOUDY    24  18  77 NW5       30.26F WCI  18
LAFAYETTE      CLOUDY    24  17  74 W3        30.29R
MADISON        CLEAR     16  12  84 NW3       30.26S
MILWAUKEE      CLEAR     20  13  74 W6        30.26S WCI  12
$$




USA.gov is the U.S. government's official web portal to all federal, state and local government web resources and services.